Centerville, IA

1:55 AM CDT on May 26, 2017 (GMT -0500)
Centerville Municipal

Weather History for KTVK - January, 2013

Change the Weather History Date:

Wednesday, January 2, 2013

  Actual Average Record
Temperature  
Mean Temperature 22 °F -  
Max Temperature 33 °F 31 °F 56 °F (1950)
Min Temperature 10 °F 16 °F -15 °F (1979)
Degree Days  
Heating Degree Days 44    
Moisture  
Dew Point 16 °F    
Average Humidity 74    
Maximum Humidity 93    
Minimum Humidity 56    
Precipitation  
Precipitation 0.00 in - - ()
Sea Level Pressure  
Sea Level Pressure 30.12 in    
Wind  
Wind Speed 10 mph (SW)    
Max Wind Speed 17 mph    
Max Gust Speed 20 mph    
Visibility 10 miles    
Events Snow    
Averages and records for this station are not official NWS values.
T = Trace of Precipitation, MM = Missing Value Source: NWS Daily Summary

Daily Weather History Graph

Daily Weather History Graph

Search for Another Location

Airport or City:

Trip Planner

Search our weather history database for the weather conditions in past years. The results will help you decide how hot, cold, wet, or windy it might be!

Date:

Astronomy

Jan. 02, 2013 Rise Set
Actual Time 7:35 AM CST 4:56 PM CST
Civil Twilight 7:04 AM CST 5:26 PM CST
Nautical Twilight 6:30 AM CST 6:01 PM CST
Astronomical Twilight 5:57 AM CST 6:34 PM CST
Moon 10:31 PM CST (1/2) 10:15 AM CST (1/2)
Length of Visible Light 10h 22m
Length of Day
9h 20m
Waning Gibbous, 75% of the Moon is Illuminated
Jan 2
Waning Gibbous
Jan 4
Last Quarter
Jan 11
New
Jan 18
First Quarter
Jan 26
Full

Hourly Weather History & Observations

Time (CST) Temp. Windchill Dew Point Humidity Pressure Visibility Wind Dir Wind Speed Gust Speed Precip Events Conditions
12:15 AM 10.4 °F -0.4 °F 5.0 °F 79% 30.20 in - SSW 6.9 mph - N/A   Clear
12:35 AM 10.4 °F -0.4 °F 5.0 °F 79% 30.20 in - SSW 6.9 mph - N/A   Clear
12:55 AM 12.2 °F 1.7 °F 5.0 °F 73% 30.18 in - SSW 6.9 mph - N/A   Clear
1:15 AM 12.2 °F 1.7 °F 5.0 °F 73% 30.17 in - SSW 6.9 mph - N/A   Clear
1:35 AM 12.2 °F -0.2 °F 5.0 °F 73% 30.17 in - South 9.2 mph - N/A   Clear
1:55 AM 12.2 °F -0.2 °F 5.0 °F 73% 30.16 in - South 9.2 mph - N/A   Clear
2:15 AM 14.0 °F 2.0 °F 5.0 °F 67% 30.16 in - South 9.2 mph - N/A   Clear
2:35 AM 14.0 °F 1.2 °F 5.0 °F 67% 30.15 in - South 10.4 mph - N/A   Clear
2:55 AM 14.0 °F 1.2 °F 5.0 °F 67% 30.15 in - South 10.4 mph - N/A   Clear
3:15 AM 14.0 °F 1.2 °F 5.0 °F 67% 30.14 in - South 10.4 mph - N/A   Clear
3:35 AM 14.0 °F 2.0 °F 6.8 °F 73% 30.13 in - South 9.2 mph - N/A   Clear
3:55 AM 14.0 °F 0.5 °F 6.8 °F 73% 30.12 in - South 11.5 mph - N/A   Clear
4:15 AM 14.0 °F 0.5 °F 6.8 °F 73% 30.13 in - South 11.5 mph - N/A   Clear
4:35 AM 14.0 °F 0.5 °F 6.8 °F 73% 30.12 in - South 11.5 mph - N/A   Clear
4:55 AM 14.0 °F -0.2 °F 6.8 °F 73% 30.12 in - South 12.7 mph - N/A   Clear
5:15 AM 14.0 °F 0.5 °F 6.8 °F 73% 30.12 in - South 11.5 mph - N/A   Clear
5:35 AM 14.0 °F 1.2 °F 8.6 °F 79% 30.12 in - SSW 10.4 mph - N/A   Clear
6:15 AM 14.0 °F 1.2 °F 8.6 °F 79% 30.12 in - South 10.4 mph - N/A   Clear
6:35 AM 15.8 °F 2.7 °F 10.4 °F 79% 30.12 in - South 11.5 mph - N/A   Clear
6:55 AM 15.8 °F 2.7 °F 10.4 °F 79% 30.11 in - South 11.5 mph - N/A   Clear
7:15 AM 15.8 °F 2.7 °F 10.4 °F 79% 30.11 in - SSW 11.5 mph - N/A   Clear
7:35 AM 15.8 °F 3.4 °F 10.4 °F 79% 30.10 in - South 10.4 mph - N/A   Clear
7:55 AM 15.8 °F 3.4 °F 12.2 °F 86% 30.11 in - SSW 10.4 mph - N/A   Unknown
8:15 AM 15.8 °F 5.1 °F 12.2 °F 86% 30.10 in - South 8.1 mph - N/A   Unknown
8:35 AM 17.6 °F 5.7 °F 14.0 °F 86% 30.10 in - South 10.4 mph - N/A   Unknown
8:55 AM 19.4 °F 7.2 °F 14.0 °F 80% 30.10 in - South 11.5 mph - N/A   Clear
9:15 AM 21.2 °F 10.9 °F 15.8 °F 80% 30.10 in - SSW 9.2 mph - N/A   Clear
9:35 AM 23.0 °F 11.1 °F 15.8 °F 74% 30.10 in - SSW 12.7 mph - N/A   Clear
9:55 AM 23.0 °F 13.1 °F 15.8 °F 74% 30.10 in - SSW 9.2 mph - N/A   Clear
10:15 AM 24.8 °F 14.6 °F 15.8 °F 69% 30.10 in - SW 10.4 mph - N/A   Clear
10:35 AM 24.8 °F 13.4 °F 17.6 °F 74% 30.11 in - SSW 12.7 mph - N/A   Clear
10:55 AM 26.6 °F 15.7 °F 17.6 °F 69% 30.11 in - SW 12.7 mph - N/A   Clear
11:15 AM 26.6 °F 16.2 °F 17.6 °F 69% 30.10 in - SW 11.5 mph 17.3 mph N/A   Clear
11:35 AM 28.4 °F 18.5 °F 19.4 °F 69% 30.09 in - SSW 11.5 mph 16.1 mph N/A   Clear
11:55 AM 28.4 °F 18.0 °F 19.4 °F 69% 30.08 in - SSW 12.7 mph - N/A   Clear
12:15 PM 30.2 °F 18.9 °F 19.4 °F 64% 30.07 in - SSW 16.1 mph 19.6 mph N/A   Clear
12:35 PM 32.0 °F 21.2 °F 19.4 °F 60% 30.06 in - South 16.1 mph - N/A   Clear
12:55 PM 32.0 °F 21.6 °F 19.4 °F 60% 30.06 in - SSW 15.0 mph - N/A   Clear
1:15 PM 32.0 °F 21.6 °F 19.4 °F 60% 30.06 in - SSW 15.0 mph - N/A   Clear
1:35 PM 32.0 °F 20.8 °F 19.4 °F 60% 30.05 in - SSW 17.3 mph - N/A   Clear
1:55 PM 32.0 °F 21.2 °F 19.4 °F 60% 30.04 in - SSW 16.1 mph - N/A   Clear
2:15 PM 32.0 °F 22.1 °F 21.2 °F 64% 30.04 in - SSW 13.8 mph - N/A   Scattered Clouds
2:35 PM 32.0 °F 23.0 °F 21.2 °F 64% 30.04 in - SSW 11.5 mph - N/A   Mostly Cloudy
2:55 PM 32.0 °F 23.6 °F 21.2 °F 64% 30.04 in - SW 10.4 mph - N/A   Mostly Cloudy
3:15 PM 32.0 °F 23.6 °F 23.0 °F 69% 30.05 in - SW 10.4 mph - N/A   Mostly Cloudy
3:35 PM 33.8 °F 24.3 °F 19.4 °F 56% 30.05 in 10.0 mi SW 13.8 mph - N/A   Overcast
3:55 PM 33.8 °F 25.3 °F 19.4 °F 56% 30.06 in 10.0 mi WSW 11.5 mph - N/A   Overcast
4:15 PM 32.0 °F 22.5 °F 21.2 °F 64% 30.07 in 10.0 mi West 12.7 mph - N/A   Overcast
4:35 PM 32.0 °F 23.0 °F 21.2 °F 64% 30.08 in 10.0 mi West 11.5 mph - N/A   Overcast
4:55 PM 32.0 °F 22.5 °F 21.2 °F 64% 30.09 in 10.0 mi West 12.7 mph - N/A   Mostly Cloudy
5:15 PM 32.0 °F 22.5 °F 23.0 °F 69% 30.09 in 10.0 mi West 12.7 mph - N/A   Mostly Cloudy
5:35 PM 30.2 °F 21.3 °F 23.0 °F 75% 30.10 in 10.0 mi WSW 10.4 mph - N/A   Overcast
5:55 PM 30.2 °F 21.3 °F 23.0 °F 75% 30.11 in 10.0 mi West 10.4 mph - N/A Snow Light Snow
6:35 PM 28.4 °F 18.5 °F 23.0 °F 80% 30.13 in 10.0 mi West 11.5 mph - N/A   Overcast
6:55 PM 28.4 °F 19.7 °F 23.0 °F 80% 30.13 in - West 9.2 mph - N/A   Overcast
7:15 PM 28.4 °F 21.2 °F 23.0 °F 80% 30.13 in - WSW 6.9 mph - N/A   Overcast
7:35 PM 28.4 °F 22.2 °F 23.0 °F 80% 30.13 in 10.0 mi WSW 5.8 mph - N/A   Overcast
7:55 PM 28.4 °F 21.2 °F 23.0 °F 80% 30.14 in 10.0 mi WSW 6.9 mph - N/A   Overcast
8:15 PM 28.4 °F 22.2 °F 23.0 °F 80% 30.14 in 10.0 mi SW 5.8 mph - N/A   Overcast
8:35 PM 26.6 °F 19.1 °F 21.2 °F 80% 30.14 in - WSW 6.9 mph - N/A   Unknown
8:55 PM 26.6 °F 17.5 °F 23.0 °F 86% 30.14 in - SW 9.2 mph - N/A   Unknown
9:15 PM 26.6 °F 18.2 °F 23.0 °F 86% 30.14 in - SW 8.1 mph - N/A   Mostly Cloudy
9:35 PM 26.6 °F 16.8 °F 23.0 °F 86% 30.15 in 10.0 mi WSW 10.4 mph - N/A   Overcast
9:55 PM 28.4 °F 19.7 °F 23.0 °F 80% 30.16 in 10.0 mi WSW 9.2 mph - N/A   Overcast
10:15 PM 28.4 °F 20.4 °F 24.8 °F 86% 30.17 in 10.0 mi WSW 8.1 mph - N/A   Overcast
10:35 PM 26.6 °F 19.1 °F 23.0 °F 86% 30.17 in 10.0 mi WSW 6.9 mph - N/A   Mostly Cloudy
10:55 PM 26.6 °F 19.1 °F 24.8 °F 93% 30.17 in 10.0 mi SW 6.9 mph - N/A   Mostly Cloudy
11:15 PM 26.6 °F 16.8 °F 24.8 °F 93% 30.17 in - WSW 10.4 mph - N/A   Overcast
11:35 PM 26.6 °F 17.5 °F 24.8 °F 93% 30.18 in 10.0 mi WSW 9.2 mph - N/A   Overcast
11:55 PM 28.4 °F 20.4 °F 26.6 °F 93% 30.18 in 10.0 mi WSW 8.1 mph - N/A   Overcast